Regional Weather Roundup
Issued by NWS Charleston, WV

Current Version | Previous Version | Text Only | Print | Product List | Glossary On
Versions: 1 2 3 4 5 6 7 8 9 10 11 12 13 14 15 16 17 18 19 20 21 22 23 24 25 26 27 28
000
ASUS41 KRLX 261510
RWRRLX
West Virginia Regional Weather Roundup
National Weather Service Charleston WV
1100 AM EDT SUN JUN 26 2016

Note: "fair" indicates few or no clouds below 12,000 feet with no
significant weather and/or obstructions to visibility.

WVZ003-261600-
Northern Panhandle of West Virginia

CITY           SKY/WX    TMP DP  RH WIND       PRES   REMARKS
WHEELING         N/A     80  67  64 S7        30.18F
$$

WVZ009-261600-
Northwest West Virginia

CITY           SKY/WX    TMP DP  RH WIND       PRES   REMARKS
PARKERSBURG      N/A     81  68  64 VRB5      30.20S
$$

WVZ006-261600-
Western West Virginia

CITY           SKY/WX    TMP DP  RH WIND       PRES   REMARKS
HUNTINGTON       N/A     82  69  64 SW6       30.16S
$$

WVZ015-261600-
West Central West Virginia

CITY           SKY/WX    TMP DP  RH WIND       PRES   REMARKS
CHARLESTON       N/A     80  65  59 S6        30.19S
$$

WVZ022-031-261600-
North Central West Virginia

CITY           SKY/WX    TMP DP  RH WIND       PRES   REMARKS
CLARKSBURG       N/A     80  66  62 VRB5      30.20S
MORGANTOWN       N/A     81  64  56 SW7       30.21S
$$

WVZ025-035-042-045-261600-
Southern West Virginia

CITY           SKY/WX    TMP DP  RH WIND       PRES   REMARKS
BECKLEY          N/A     74  63  68 SE8       30.29R
LOGAN          NOT AVBL
BLUEFIELD        N/A     73  62  68 VRB3      30.31R
LEWISBURG      CLOUDY    71  62  72 CALM      30.29S
$$

WVZ047-261600-
Northern Mountains of West Virginia

CITY           SKY/WX    TMP DP  RH WIND       PRES   REMARKS
ELKINS           N/A     76  62  62 VRB3      30.26S
$$

WVZ052-261600-
Eastern Panhandle of West Virginia

CITY           SKY/WX    TMP DP  RH WIND       PRES   REMARKS
MARTINSBURG      N/A     77  62  59 S9        30.23S
PETERSBURG     PTSUNNY   80  68  66 SW3       30.23S
$$




USA.gov is the U.S. government's official web portal to all federal, state and local government web resources and services.